{"data":{"norad_id":67888,"intl_designator":"2026-035K","name":"STARLINK-36801","alt_names":[],"object_type":"PAYLOAD","status":"ACTIVE","operator":null,"country":"US","launch_date":"2026-02-21","launch_site_code":"AFWTR","launch_vehicle":null,"mission":null,"orbit_class":"UNKNOWN","rcs_meters":null,"size_class":null,"mass_kg":null,"dimensions":null,"purposes":["comms"],"wikipedia_slug":null,"has_3d_model":false,"image_url":null,"decayed_at":null,"tle_current":{"epoch":"2026-05-25T01:32:19.023648Z","epoch_age_seconds":69517,"freshness":"FRESH","line1":"1 67888U 26035K   26145.06410907  .00020925  00000+0  64841-3 0  9991","line2":"2 67888  97.2862  78.6066 0001828  96.7770 263.3681 15.33458440 15698","mean_motion":15.3345844,"eccentricity":0.0001828,"inclination_deg":97.2862,"raan_deg":78.6066,"arg_perigee_deg":96.777,"mean_anomaly_deg":263.3681,"bstar":0.00064841,"rev_number":1569,"period_min":93.90538161569,"perigee_km":464.25216935989,"apogee_km":466.75420421218,"semimajor_km":6843.640186786,"source":"CELESTRAK","updated_at":"2026-05-25T13:38:21.733468Z"}}}